STARLINK-30157 (57512 NORAD) Tracking and Keplerian Element Data

This shows tracking and keplerian element data for the satellite.

Feedback or suggestion? Click here.




ElementValue
Catalog57512
NameSTARLINK-30157
Epoch Orbit430
Epoch Day238.57921186
Epoch Year2023
RAAN13.4264
Inclination43.0031
Eccentricity0.0004568
Argument of Perigee264.1128
Mean Anonmoly95.9222
Mean Motion15.76917499
Decay Rate0.00042153
L11 57512U 23113T 23238.57921186 .00042153 00000+0 25417-3 0 9993
L22 57512 43.0031 13.4264 0004568 264.1128 95.9222 15.76917499 4304



Live tracking and technical data element details for STARLINK-30157 (NORAD 57512). STARLINK-30157 can be tracked NOW for your location showing map with azimuth and elevation plus other details from your city location.







IsCatalogInMostPopularTable: catalog: 57512, numindb: 6
Update: records affected: 1



GetName: 57512 STARLINK-30157

Hit Count: updated at: Tue, 26 Sep 2023 13:07:51 GMT